This demonstration page uses our WeatherBlox Daily Observations layout. Learn more.

Left ArrowRight Arrow

39.92423, -83.80882

Hourly Observations for March 25, 2018

Temp ( °F °C ) Dew Point ( °F °C ) Humidity (%) Winds ( mph kmh ) Pressure ( in mb ) Visibility ( mi km ) Precip ( " mm )
12:56 am 00:56 Clear 31 -0.6 17 -8.3 56 56 NE 16 26 30.20 1023 10 16 N/A
1:56 am 01:56 Clear 29 -1.7 19 -7.2 66 66 NE 16 26 30.22 1023 10 16 N/A
2:56 am 02:56 Clear 27 -2.8 19 -7.2 72 72 NE 15 24 30.23 1024 10 16 N/A
3:56 am 03:56 Clear 26 -3.3 21 -6.1 81 81 NE 15 24 30.24 1024 10 16 N/A
4:56 am 04:56 Clear 25 -3.9 20 -6.7 81 81 NE 14 22 30.24 1024 10 16 N/A
5:56 am 05:56 Clear 25 -3.9 19 -7.2 78 78 NE 14 22 30.26 1025 10 16 N/A
6:56 am 06:56 Clear 24 -4.4 17 -8.3 75 75 NE 13 20 30.27 1025 10 16 N/A
7:56 am 07:56 Sunny 24 -4.4 14 -10 65 65 ENE 18 30 30.30 1026 10 16 N/A
8:56 am 08:56 Sunny 27 -2.8 14 -10 58 58 ENE 20 31 30.32 1027 10 16 N/A
9:56 am 09:56 Sunny 31 -0.6 14 -10 49 49 ENE 21 33 30.33 1027 10 16 N/A
10:56 am 10:56 Sunny 33 0.6 11 -11.7 40 40 ENE 20 31 30.33 1027 10 16 N/A
11:56 am 11:56 Sunny 37 2.8 9 -12.8 31 31 ENE 18 30 30.32 1027 10 16 N/A
12:56 pm 12:56 Sunny 40 4.4 11 -11.7 30 30 E 18 30 30.32 1027 10 16 N/A
1:56 pm 13:56 Sunny 41 5 8 -13.3 25 25 ENE 15 24 30.32 1027 10 16 N/A
2:56 pm 14:56 Sunny 43 6.1 9 -12.8 25 25 ENE 18 30 30.30 1026 10 16 N/A
3:56 pm 15:56 Sunny 44 6.7 8 -13.3 23 23 E 18 30 30.29 1026 10 16 N/A
4:56 pm 16:56 Sunny 45 7.2 9 -12.8 23 23 E 18 30 30.29 1026 10 16 N/A
5:56 pm 17:56 Sunny 42 5.6 10 -12.2 27 27 ENE 21 33 30.28 1026 10 16 N/A
6:56 pm 18:56 Sunny 42 5.6 10 -12.2 27 27 E 16 26 30.31 1026 10 16 N/A
7:56 pm 19:56 Clear 37 2.8 11 -11.7 34 34 E 12 19 30.33 1027 10 16 N/A
8:56 pm 20:56 Clear 35 1.7 11 -11.7 37 37 E 12 19 30.33 1027 10 16 N/A
9:56 pm 21:56 Clear 34 1.1 11 -11.7 38 38 E 14 22 30.34 1027 10 16 N/A
10:56 pm 22:56 Clear 34 1.1 11 -11.7 38 38 E 15 24 30.33 1027 10 16 N/A
11:56 pm 23:56 Clear 32 undefined 11 -11.7 41 41 E 13 20 30.32 1027 10 16 N/A

Powered by AerisWeather